This is the latest recevied weather packets stored in our database for station/object N7TUG-8. If no packets are shown the sender has not sent any weather packets the latest 10 day(s).
| Time | Temp. | Humidity | Pressure | Rain* | Wind** | Luminosity | Snow |
|---|---|---|---|---|---|---|---|
| 1777732887 | 12.78° C | 83% | 1016.5 hPa | 0 mm | 0.45 m/s, 270° | - | - |
| 1777732476 | 13.33° C | 82% | 1016.6 hPa | 0 mm | 0.89 m/s, 231° | - | - |
| 1777732097 | 13.33° C | 81% | 1016.5 hPa | 0 mm | 0.45 m/s, 240° | - | - |
| 1777731671 | 13.33° C | 81% | 1016.5 hPa | 0 mm | 0.45 m/s, 219° | - | - |
| 1777731240 | 13.33° C | 81% | 1016.5 hPa | 0 mm | 0.45 m/s, 246° | - | - |
| 1777730751 | 13.33° C | 81% | 1016.7 hPa | 0 mm | 0 m/s | - | - |
| 1777730342 | 13.33° C | 81% | 1016.7 hPa | 0 mm | 0.45 m/s, 178° | - | - |
| 1777729881 | 12.78° C | 82% | 1016.6 hPa | 0 mm | 0.45 m/s, 219° | - | - |
| 1777729473 | 12.22° C | 82% | 1016.5 hPa | 0 mm | 0.45 m/s, 326° | - | - |
| 1777729032 | 12.78° C | 82% | 1016.5 hPa | 0 mm | 0.45 m/s, 283° | - | - |
| 1777728707 | 12.22° C | 83% | 1016.4 hPa | 0 mm | 0 m/s | - | - |
| 1777728091 | 12.22° C | 83% | 1016.5 hPa | 0 mm | 0 m/s | - | - |
| 1777727892 | 12.22° C | 83% | 1016.6 hPa | 0 mm | 0.45 m/s, 144° | - | - |
| 1777727263 | 12.22° C | 82% | 1016.4 hPa | 0 mm | 0.45 m/s, 181° | - | - |
| 1777727132 | 12.22° C | 82% | 1016.4 hPa | 0 mm | 0.45 m/s, 181° | - | - |
| 1777726402 | 12.22° C | 83% | 1016.3 hPa | 0 mm | 0.45 m/s, 230° | - | - |
| 1777725526 | 12.22° C | 83% | 1016.3 hPa | 0 mm | 0.45 m/s, 199° | - | - |
| 1777724792 | 11.67° C | 85% | 1016.5 hPa | 0 mm | 0.45 m/s, 123° | - | - |
| 1777724626 | 11.67° C | 84% | 1016.4 hPa | 0 mm | 0.89 m/s, 360° | - | - |
| 1777723806 | 12.22° C | 82% | 1016.5 hPa | 0 mm | 0.45 m/s, 321° | - | - |
| 1777723262 | 12.78° C | 83% | 1016.5 hPa | 0 mm | 0 m/s | - | - |
| 1777722941 | 12.22° C | 84% | 1016.6 hPa | 0 mm | 0.45 m/s, 256° | - | - |
| 1777722367 | 11.67° C | 86% | 1016.7 hPa | 0 mm | 0.45 m/s, 5° | - | - |
| 1777722021 | 11.67° C | 87% | 1016.7 hPa | 0 mm | 0.89 m/s, 20° | - | - |
| 1777721572 | 11.67° C | 87% | 1017 hPa | 0 mm | 0.89 m/s, 170° | - | - |
* Rain latest hour (hover to see other rain measurements)
** Current wind speed in m/s (hover to see current wind gust speed)